GFSNE_850_temp_105.txt.gz
Temp
10 10 10 10 10 11 11 10 9 8 8 10 10 11 10 10 10 8 8 8 8 7 7 7 7 6 6 6 5 4 4 4 4 4 4 3 3 3
9 10 10 10 10 10 10 10 9 9 8 9 10 10 10 9 9 8 8 8 7 7 7 7 7 6 6 6 6 5 5 4 4 3 3 3 3 2
9 10 10 10 10 10 10 10 9 9 8 8 8 9 9 8 8 8 7 7 7 6 6 6 6 6 6 6 5 5 5 4 3 3 2 2 2 2
10 10 10 10 10 9 9 9 9 9 9 9 8 8 8 8 7 6 6 6 5 5 5 5 6 6 6 5 5 5 5 3 3 3 2 1 1 0
10 10 10 9 9 9 9 9 9 9 9 8 8 7 7 6 6 5 5 4 5 5 4 4 4 4 4 4 4 4 3 3 2 1 1 0 -0 -1
9 9 9 9 9 9 9 9 9 7 8 7 7 6 6 5 4 3 3 3 3 3 3 2 2 2 2 2 2 2 2 1 0 0 -0 -1 -1 -1
9 9 9 9 9 9 8 7 6 6 5 5 4 2 2 2 1 0 -0 0 1 0 1 -0 -1 -1 -1 -1 -1 -1 -1 -1 -1 -1 -1 -2 -2 -2
9 8 8 8 7 4 3 2 5 3 3 2 1 1 -0 -2 -3 -2 -3 -3 -4 -3 -3 -2 -2 -3 -3 -3 -3 -3 -3 -3 -3 -3 -3 -3 -3 -3
8 7 5 3 1 2 2 1 1 -0 1 0 -1 -2 -3 -4 -5 -4 -4 -5 -6 -5 -6 -6 -5 -5 -5 -5 -5 -5 -5 -5 -5 -5 -5 -5 -5 -4
5 2 0 0 0 1 0 -1 -1 -1 -2 -2 -3 -5 -6 -7 -7 -8 -8 -8 -7 -7 -8 -8 -8 -8 -7 -7 -7 -7 -7 -7 -6 -6 -6 -6 -5 -5
1 -0 0 -1 -1 -2 -3 -3 -4 -4 -5 -5 -7 -8 -9 -9 -9 -9 -8 -9 -10 -9 -10 -10 -11 -10 -9 -9 -9 -9 -9 -8 -7 -7 -7 -7 -6 -6
-1 -1 -2 -3 -3 -3 -4 -5 -5 -6 -7 -7 -8 -9 -9 -10 -10 -10 -11 -11 -12 -12 -13 -13 -13 -13 -13 -13 -12 -11 -11 -10 -9 -10 -10 -10 -9 -8
-3 -4 -5 -6 -7 -7 -6 -6 -7 -9 -9 -10 -10 -10 -11 -11 -11 -12 -13 -13 -14 -14 -14 -15 -15 -15 -15 -14 -14 -14 -13 -12 -12 -12 -11 -11 -11 -10
-4 -6 -8 -9 -9 -9 -9 -10 -11 -11 -11 -12 -12 -13 -13 -14 -14 -15 -15 -15 -15 -15 -15 -15 -16 -16 -16 -16 -15 -15 -14 -14 -14 -13 -13 -12 -12 -11
-6 -8 -9 -10 -10 -11 -12 -12 -12 -12 -13 -13 -14 -15 -16 -16 -16 -16 -16 -16 -16 -16 -17 -17 -17 -17 -17 -17 -17 -16 -16 -15 -15 -14 -14 -13 -13 -13
-8 -9 -10 -11 -11 -12 -12 -12 -13 -14 -15 -15 -16 -16 -16 -16 -17 -17 -18 -18 -17 -17 -18 -18 -17 -18 -18 -17 -17 -17 -16 -16 -16 -15 -15 -14 -13 -13
-10 -10 -10 -10 -10 -12 -13 -14 -14 -15 -15 -16 -17 -17 -17 -18 -18 -18 -19 -19 -19 -19 -19 -18 -18 -18 -18 -18 -18 -17 -18 -17 -16 -16 -16 -15 -14 -13
-10 -10 -11 -12 -12 -14 -15 -15 -15 -16 -16 -17 -17 -18 -18 -19 -19 -20 -20 -20 -20 -20 -20 -19 -19 -19 -19 -19 -19 -18 -18 -18 -17 -17 -17 -16 -15 -14
-10 -12 -13 -15 -15 -15 -16 -16 -16 -16 -17 -17 -18 -20 -20 -20 -20 -20 -20 -21 -21 -21 -20 -20 -20 -20 -20 -20 -19 -19 -19 -18 -18 -17 -17 -16 -16 -15
-13 -14 -15 -15 -15 -15 -15 -16 -16 -17 -18 -19 -19 -19 -20 -20 -20 -20 -21 -21 -21 -21 -21 -21 -20 -20 -20 -20 -20 -19 -19 -19 -18 -18 -17 -16 -16 -14
-14 -15 -15 -15 -15 -15 -16 -17 -17 -17 -18 -18 -19 -19 -20 -20 -20 -21 -21 -21 -22 -22 -21 -21 -21 -21 -20 -20 -20 -19 -18 -18 -18 -18 -17 -17 -16 -15
-15 -15 -15 -15 -15 -16 -16 -17 -17 -17 -18 -18 -19 -19 -20 -20 -20 -20 -21 -22 -22 -22 -22 -21 -21 -21 -21 -21 -20 -20 -18 -17 -17 -17 -17 -16 -16 -15
-15 -15 -15 -15 -16 -16 -17 -17 -18 -18 -19 -19 -19 -19 -19 -19 -20 -20 -21 -22 -22 -22 -22 -22 -22 -21 -21 -20 -20 -19 -19 -17 -17 -14 -12 -13 -12 -12

GFSNE_850_temp_111.txt.gz
Temp
9 8 8 8 9 9 8 9 9 8 9 10 10 10 9 9 10 9 9 8 8 8 8 7 7 7 7 7 7 7 7 6 6 6 6 6 6 6
8 8 9 9 8 9 8 8 8 8 8 9 9 9 9 9 8 9 9 8 8 8 8 7 7 7 7 6 7 6 6 5 5 5 5 5 5 5
8 8 8 8 8 8 8 8 8 8 8 9 9 9 9 9 8 8 8 8 7 7 7 7 6 6 6 5 5 4 4 4 4 3 4 4 4 4
9 8 8 8 8 8 8 8 9 9 8 8 8 8 8 8 8 8 7 7 6 6 6 5 4 4 4 3 3 3 3 3 3 2 2 2 2 3
8 7 8 8 8 8 8 8 9 8 8 8 8 7 7 7 7 6 6 5 4 4 3 3 2 2 2 2 1 1 1 0 0 0 1 0 0 0
8 8 8 8 8 8 8 8 8 8 8 7 6 5 5 4 4 5 4 3 3 2 2 1 0 -0 -1 -2 -2 -2 -2 -2 -3 -3 -3 -2 -2 -2
8 8 8 7 8 8 8 7 7 5 5 4 3 3 3 3 2 0 1 1 0 0 0 -0 -1 -1 -2 -2 -3 -3 -4 -5 -4 -5 -5 -5 -5 -4
7 8 7 8 8 7 6 5 3 3 3 2 1 1 -1 -1 -2 -1 -2 -1 -2 -2 -3 -2 -3 -3 -4 -4 -5 -6 -7 -7 -7 -7 -7 -7 -7 -7
8 7 6 5 5 4 2 2 2 1 1 0 0 -2 -2 -3 -4 -4 -4 -6 -7 -7 -7 -6 -6 -6 -6 -6 -6 -7 -8 -9 -10 -10 -10 -10 -9 -9
7 6 5 3 1 0 0 0 -0 -0 -1 -1 -2 -3 -5 -5 -6 -6 -7 -8 -7 -7 -8 -9 -9 -10 -9 -9 -9 -9 -10 -11 -11 -12 -12 -11 -13 -13
4 2 1 0 -1 -1 -1 -1 -2 -3 -5 -5 -4 -5 -6 -7 -7 -8 -7 -7 -8 -8 -9 -12 -12 -11 -11 -12 -13 -12 -12 -12 -12 -12 -13 -13 -15 -14
-1 -2 -2 -1 -1 -1 -3 -2 -3 -4 -6 -7 -7 -7 -7 -8 -9 -9 -10 -10 -11 -12 -12 -13 -13 -15 -16 -16 -15 -13 -13 -13 -14 -14 -14 -15 -15 -15
-3 -4 -4 -4 -4 -3 -4 -4 -4 -5 -7 -7 -7 -8 -9 -9 -9 -10 -11 -12 -13 -14 -15 -17 -18 -18 -18 -18 -17 -15 -15 -15 -15 -15 -15 -15 -16 -16
-4 -5 -6 -5 -4 -5 -4 -5 -6 -7 -7 -8 -9 -9 -10 -10 -10 -11 -12 -13 -14 -15 -16 -17 -17 -18 -18 -18 -18 -16 -15 -16 -18 -17 -17 -17 -17 -16
-5 -6 -5 -7 -7 -6 -6 -7 -8 -8 -9 -10 -10 -11 -11 -12 -13 -13 -13 -14 -14 -14 -15 -16 -17 -18 -18 -19 -19 -17 -18 -16 -17 -18 -18 -18 -19 -18
-4 -5 -6 -7 -7 -7 -8 -8 -10 -11 -11 -11 -11 -12 -13 -14 -14 -14 -15 -15 -15 -14 -15 -16 -17 -18 -19 -19 -20 -17 -17 -20 -18 -18 -19 -19 -18 -19
-6 -8 -8 -9 -9 -9 -11 -11 -11 -11 -11 -12 -13 -13 -14 -14 -15 -15 -16 -16 -17 -17 -16 -16 -17 -18 -18 -19 -18 -17 -18 -19 -19 -19 -19 -18 -18 -18
-7 -8 -9 -10 -11 -12 -12 -11 -12 -12 -12 -13 -14 -14 -15 -15 -15 -16 -16 -17 -17 -17 -17 -18 -18 -17 -17 -18 -19 -19 -18 -19 -19 -19 -20 -20 -19 -18
-9 -10 -10 -11 -12 -12 -12 -12 -12 -13 -14 -15 -15 -15 -15 -16 -16 -16 -17 -17 -17 -18 -18 -18 -19 -20 -21 -20 -18 -19 -20 -19 -20 -20 -20 -20 -20 -17
-10 -11 -12 -12 -12 -12 -12 -13 -14 -15 -15 -15 -15 -15 -16 -16 -16 -17 -17 -18 -18 -18 -18 -18 -19 -20 -20 -21 -21 -14 -17 -20 -20 -20 -19 -19 -18 -17
-11 -12 -12 -12 -13 -13 -14 -14 -15 -15 -15 -15 -16 -16 -16 -16 -17 -17 -18 -18 -18 -18 -18 -17 -18 -18 -18 -19 -19 -16 -13 -16 -18 -19 -17 -17 -16 -14
-12 -12 -13 -13 -14 -14 -14 -15 -15 -15 -16 -16 -16 -16 -16 -17 -17 -17 -18 -18 -18 -18 -18 -17 -17 -17 -17 -18 -18 -17 -14 -12 -12 -13 -13 -13 -14 -14
-13 -13 -13 -14 -15 -15 -15 -15 -15 -16 -16 -16 -16 -16 -17 -17 -17 -18 -18 -18 -18 -18 -18 -17 -16 -17 -17 -17 -18 -16 -14 -12 -11 -11 -11 -11 -11 -11

GFSNE_850_temp_114.txt.gz
Temp
10 9 9 9 9 10 10 10 9 9 9 9 9 9 9 8 8 8 8 9 9 8 8 8 8 8 8 7 7 7 7 6 6 6 6 6 5 5
9 9 9 9 9 9 8 8 8 8 8 9 9 8 8 8 8 8 8 8 8 8 8 7 7 7 7 6 6 6 6 5 5 5 5 5 4 4
9 9 9 8 8 8 8 8 8 7 7 8 8 8 8 7 8 8 8 8 7 7 7 7 7 6 6 5 5 4 4 4 3 3 3 3 3 3
9 9 8 8 8 8 8 7 7 7 7 8 7 7 7 7 7 7 7 6 6 5 6 5 5 5 3 3 3 3 2 2 2 2 2 2 2 1
9 8 8 8 8 7 7 7 7 7 7 7 7 7 7 7 5 5 5 5 4 3 3 2 1 1 1 0 -0 -0 -1 -1 -1 -1 -1 -1 -2 -2
8 8 8 7 8 7 7 7 7 7 7 7 7 6 5 5 5 5 3 3 2 1 1 1 -0 -1 -1 -1 -2 -2 -2 -3 -3 -4 -4 -4 -5 -5
8 7 8 8 8 8 7 7 7 7 7 6 5 4 3 2 2 3 2 1 1 1 1 -1 -1 -1 -2 -2 -3 -3 -4 -4 -5 -5 -6 -6 -6 -7
8 8 8 8 7 7 7 7 6 6 5 4 3 2 1 0 -0 -1 -1 -1 -1 -3 -3 -2 -3 -4 -4 -4 -5 -5 -6 -7 -7 -9 -10 -10 -10 -9
8 7 7 7 6 6 5 5 3 3 2 1 0 -1 -1 -2 -2 -3 -4 -4 -6 -6 -5 -5 -6 -6 -6 -7 -7 -7 -8 -9 -10 -11 -11 -11 -11 -11
7 6 6 5 3 2 2 1 1 -0 -1 -1 -1 -1 -3 -4 -5 -5 -5 -6 -6 -7 -7 -9 -9 -9 -9 -9 -9 -9 -10 -11 -11 -11 -11 -12 -12 -13
5 3 2 1 -1 -1 -1 -1 -2 -3 -4 -3 -3 -5 -5 -6 -7 -7 -6 -6 -7 -8 -9 -11 -11 -12 -12 -12 -12 -11 -11 -12 -12 -12 -13 -13 -13 -15
2 -0 -1 -1 -2 -3 -3 -4 -4 -4 -5 -6 -6 -7 -7 -7 -7 -7 -8 -9 -10 -11 -13 -13 -13 -14 -16 -15 -15 -13 -13 -13 -13 -13 -13 -13 -15 -16
-1 -3 -4 -4 -5 -5 -4 -3 -3 -4 -6 -6 -6 -7 -8 -8 -9 -10 -11 -11 -12 -13 -14 -15 -16 -16 -17 -18 -16 -13 -14 -14 -14 -14 -14 -14 -15 -17
-4 -4 -5 -6 -6 -5 -5 -5 -6 -7 -7 -8 -8 -9 -9 -10 -10 -11 -12 -13 -14 -15 -15 -15 -16 -17 -18 -17 -16 -13 -13 -14 -15 -15 -16 -16 -16 -18
-4 -4 -6 -6 -5 -5 -4 -6 -7 -8 -8 -9 -9 -10 -10 -11 -12 -12 -13 -13 -14 -14 -14 -15 -16 -16 -16 -16 -16 -14 -15 -14 -15 -16 -16 -17 -18 -18
-6 -6 -5 -5 -6 -7 -8 -9 -9 -9 -9 -10 -10 -11 -12 -13 -13 -13 -13 -13 -13 -13 -14 -15 -15 -15 -15 -15 -16 -14 -15 -18 -16 -18 -19 -18 -18 -18
-7 -7 -7 -8 -8 -8 -9 -9 -10 -10 -10 -11 -12 -12 -13 -13 -13 -14 -14 -14 -15 -15 -14 -13 -14 -15 -15 -16 -14 -15 -16 -17 -19 -20 -20 -18 -17 -18
-7 -7 -8 -8 -8 -9 -10 -10 -11 -11 -12 -12 -13 -13 -13 -13 -14 -14 -15 -15 -15 -15 -15 -16 -15 -15 -14 -16 -15 -16 -18 -18 -18 -18 -20 -20 -17 -15
-7 -8 -8 -9 -9 -10 -11 -11 -11 -12 -13 -13 -13 -14 -14 -14 -14 -15 -15 -15 -15 -16 -16 -16 -17 -17 -17 -16 -13 -14 -17 -15 -16 -15 -17 -17 -16 -13
-9 -9 -9 -10 -11 -11 -12 -12 -13 -14 -14 -14 -14 -14 -15 -15 -14 -14 -15 -16 -16 -16 -16 -16 -17 -17 -18 -18 -17 -11 -14 -16 -16 -14 -13 -12 -13 -12
-10 -10 -11 -11 -12 -12 -13 -14 -14 -15 -15 -15 -15 -15 -15 -15 -15 -15 -16 -16 -17 -17 -16 -16 -16 -16 -16 -15 -15 -12 -11 -12 -13 -13 -12 -12 -12 -12
-11 -11 -12 -12 -13 -13 -14 -14 -15 -15 -16 -16 -15 -15 -15 -15 -15 -16 -16 -16 -17 -17 -16 -16 -15 -15 -15 -15 -13 -12 -11 -10 -11 -11 -12 -12 -12 -12
-12 -12 -13 -13 -14 -14 -15 -15 -15 -15 -15 -16 -16 -16 -15 -15 -16 -16 -16 -17 -17 -17 -16 -15 -14 -14 -14 -14 -13 -12 -11 -11 -11 -11 -11 -10 -10 -11

GFSNE_850_temp_117.txt.gz
Temp
11 11 10 10 10 10 11 10 10 10 10 11 10 9 9 8 9 8 8 8 8 8 8 8 8 8 8 8 8 7 7 7 6 6 6 6 6 5
11 11 10 10 10 10 9 9 9 9 8 9 9 8 8 8 8 8 7 7 8 8 7 8 8 7 7 6 7 7 5 5 5 5 5 4 4 3
11 10 9 9 9 9 8 8 8 8 8 8 7 7 7 7 7 7 7 7 7 7 7 7 6 6 5 4 4 4 4 4 3 3 2 2 2 2
9 8 8 8 8 8 8 8 7 7 7 7 7 7 7 7 7 6 6 5 5 5 4 4 2 2 2 1 2 1 1 1 1 1 0 0 0 0
10 9 8 8 8 8 8 8 7 7 7 7 7 7 6 6 5 4 3 3 2 3 1 1 1 0 0 0 0 -0 -0 -1 -1 -1 -2 -2 -2 -3
8 8 8 8 7 8 8 7 7 7 7 7 7 7 6 5 3 2 2 1 1 0 -1 -1 -1 -1 -1 -1 -2 -2 -2 -3 -3 -4 -5 -5 -6 -6
8 8 8 8 8 8 7 7 7 7 7 7 6 5 3 2 1 0 -0 -1 -1 -0 -1 -1 -1 -2 -2 -2 -3 -3 -4 -5 -6 -7 -8 -8 -8 -8
9 8 8 8 7 7 7 7 7 7 6 5 4 2 0 -1 -2 -1 -1 -1 -2 -2 -2 -3 -3 -4 -4 -4 -5 -5 -7 -8 -9 -9 -10 -10 -9 -10
9 8 8 7 7 7 7 7 6 5 3 2 1 -1 -2 -2 -3 -3 -3 -3 -4 -4 -4 -5 -6 -6 -5 -6 -6 -7 -8 -9 -10 -9 -9 -10 -10 -11
7 7 7 7 5 5 5 4 3 1 -0 -1 -2 -2 -3 -3 -3 -4 -5 -6 -6 -8 -7 -8 -10 -10 -8 -7 -7 -8 -9 -10 -9 -9 -10 -10 -11 -11
6 5 4 3 2 1 2 1 -1 -2 -4 -4 -3 -3 -3 -4 -4 -4 -5 -6 -7 -10 -10 -10 -11 -13 -11 -10 -10 -10 -10 -10 -10 -10 -11 -11 -12 -12
4 2 0 1 -2 -2 -1 -2 -2 -3 -3 -4 -5 -6 -5 -5 -6 -6 -7 -8 -9 -10 -12 -11 -11 -14 -15 -15 -13 -11 -12 -14 -14 -12 -12 -13 -15 -16
2 -1 -3 -3 -3 -4 -4 -3 -4 -5 -6 -6 -6 -6 -7 -8 -8 -8 -9 -10 -11 -12 -13 -13 -13 -15 -17 -16 -13 -11 -15 -15 -13 -13 -15 -16 -17 -17
-2 -4 -5 -5 -5 -6 -6 -7 -7 -7 -6 -7 -7 -8 -8 -9 -10 -10 -11 -12 -12 -13 -13 -14 -15 -16 -17 -16 -15 -13 -12 -13 -14 -15 -16 -17 -17 -17
-4 -4 -6 -7 -8 -8 -8 -7 -7 -7 -7 -8 -8 -9 -10 -10 -11 -11 -11 -12 -12 -13 -13 -14 -14 -14 -14 -14 -14 -15 -13 -11 -15 -16 -16 -17 -17 -17
-4 -4 -6 -8 -7 -7 -7 -7 -8 -8 -8 -9 -9 -10 -11 -11 -11 -11 -11 -11 -12 -12 -13 -13 -13 -13 -11 -12 -14 -14 -16 -16 -13 -16 -14 -12 -13 -16
-4 -6 -7 -8 -8 -8 -8 -8 -9 -9 -9 -10 -11 -11 -12 -12 -12 -12 -12 -13 -13 -13 -12 -12 -12 -12 -11 -12 -13 -14 -15 -16 -15 -11 -12 -13 -11 -13
-5 -7 -8 -8 -8 -9 -9 -9 -10 -11 -11 -11 -12 -12 -12 -12 -13 -13 -13 -13 -13 -13 -13 -13 -12 -11 -10 -9 -12 -13 -12 -12 -11 -12 -15 -15 -13 -11
-6 -8 -8 -8 -9 -9 -10 -10 -11 -11 -12 -12 -12 -12 -13 -13 -13 -13 -13 -13 -14 -14 -14 -14 -13 -13 -15 -15 -11 -12 -12 -11 -11 -10 -13 -12 -12 -11
-8 -8 -9 -9 -10 -10 -11 -11 -11 -12 -13 -13 -13 -13 -13 -13 -14 -14 -14 -14 -14 -14 -14 -14 -14 -14 -15 -16 -15 -10 -12 -12 -12 -11 -10 -10 -10 -9
-9 -9 -9 -10 -10 -11 -12 -12 -13 -13 -13 -13 -13 -14 -14 -14 -14 -15 -15 -14 -14 -14 -14 -14 -14 -14 -14 -14 -15 -10 -10 -11 -11 -11 -11 -11 -11 -10
-10 -10 -11 -11 -12 -12 -13 -13 -13 -14 -14 -14 -14 -15 -15 -15 -15 -15 -15 -15 -15 -15 -14 -14 -14 -14 -14 -15 -14 -12 -10 -9 -10 -10 -11 -11 -11 -11
-11 -11 -12 -12 -13 -13 -13 -14 -14 -14 -15 -15 -15 -15 -15 -15 -15 -15 -15 -15 -15 -14 -14 -14 -14 -13 -14 -15 -15 -12 -10 -10 -10 -10 -11 -11 -11 -10

GFSNE_850_temp_120.txt.gz
Temp
10 10 10 11 10 10 12 12 12 10 9 9 9 9 9 8 8 9 8 9 9 9 8 8 8 8 7 8 7 7 7 7 6 6 6 6 5 5
10 9 9 9 10 11 11 11 11 11 10 9 8 8 8 7 8 8 8 8 8 7 7 7 7 7 7 7 6 5 5 5 5 5 5 4 4 3
10 9 9 11 11 10 10 10 10 10 9 8 7 7 7 7 7 7 8 7 7 7 6 6 6 5 4 4 4 3 3 3 3 3 2 2 2 2
10 11 10 11 10 10 10 9 9 9 9 8 7 7 7 8 7 6 6 5 5 4 3 2 2 2 1 1 2 2 1 1 0 1 0 0 0 0
10 10 10 11 10 9 9 9 9 9 7 7 7 7 7 6 5 5 3 2 2 1 1 0 -0 0 0 1 1 -0 -1 -2 -2 -2 -2 -2 -3 -3
9 9 8 9 10 8 8 9 8 8 7 7 7 7 6 5 4 2 2 1 1 -1 -1 -1 -1 -1 -0 -1 -1 -2 -2 -3 -3 -4 -4 -5 -6 -6
8 8 7 7 9 7 7 7 7 7 7 7 7 6 5 3 2 1 -0 -1 -1 -1 -1 -1 -1 -2 -3 -3 -4 -4 -5 -5 -5 -6 -6 -6 -7 -8
8 7 7 8 8 7 7 7 7 7 7 7 6 5 3 1 -0 -1 -2 -2 -1 -1 -2 -4 -3 -5 -4 -4 -5 -5 -7 -7 -7 -7 -8 -8 -8 -9
8 8 8 7 7 7 7 7 7 7 6 5 4 2 0 -2 -2 -2 -2 -2 -3 -2 -2 -3 -5 -5 -5 -5 -6 -7 -6 -6 -7 -8 -8 -8 -8 -9
7 7 8 7 7 7 7 7 6 4 3 2 -0 -1 -2 -2 -2 -2 -3 -3 -6 -6 -4 -5 -6 -6 -5 -6 -6 -6 -6 -7 -7 -7 -7 -7 -8 -9
6 7 7 7 6 6 6 5 3 1 -3 -3 -3 -3 -3 -3 -4 -3 -4 -5 -6 -9 -7 -8 -10 -10 -8 -7 -7 -8 -7 -7 -7 -7 -8 -9 -9 -10
5 5 4 4 3 1 2 1 0 -3 -4 -4 -3 -5 -5 -4 -4 -5 -5 -6 -7 -11 -9 -8 -10 -12 -12 -8 -11 -11 -11 -12 -13 -13 -12 -13 -13 -14
5 3 1 0 -1 -2 -2 -2 -1 -3 -4 -5 -5 -5 -5 -6 -6 -6 -7 -8 -9 -11 -10 -10 -10 -12 -12 -13 -12 -12 -12 -12 -12 -12 -13 -13 -10 -13
3 -1 -3 -4 -4 -4 -3 -4 -4 -5 -6 -5 -5 -6 -7 -7 -8 -9 -9 -10 -10 -10 -10 -10 -11 -12 -13 -14 -13 -12 -12 -13 -12 -12 -12 -12 -12 -13
-1 -4 -5 -5 -5 -5 -5 -6 -8 -6 -6 -6 -7 -8 -8 -9 -9 -10 -10 -10 -10 -10 -10 -10 -11 -11 -14 -15 -14 -13 -13 -12 -12 -12 -12 -13 -13 -12
-4 -4 -4 -5 -5 -6 -8 -7 -6 -7 -7 -7 -8 -9 -10 -10 -10 -10 -10 -10 -12 -14 -12 -11 -11 -12 -13 -13 -14 -13 -12 -12 -12 -12 -13 -12 -11 -11
-3 -5 -7 -6 -7 -8 -8 -8 -8 -8 -8 -9 -9 -10 -10 -10 -10 -10 -11 -11 -12 -14 -14 -14 -13 -13 -12 -11 -13 -12 -12 -12 -12 -12 -13 -11 -11 -10
-5 -6 -8 -9 -9 -8 -8 -8 -9 -9 -10 -10 -10 -10 -11 -11 -11 -11 -12 -12 -13 -13 -13 -13 -12 -13 -13 -12 -11 -10 -10 -10 -9 -11 -12 -11 -10 -9
-5 -6 -7 -8 -8 -9 -9 -9 -10 -10 -11 -11 -11 -11 -11 -12 -12 -12 -13 -13 -13 -14 -15 -15 -15 -14 -14 -13 -10 -10 -10 -10 -9 -10 -12 -11 -10 -9
-6 -7 -8 -9 -9 -9 -10 -10 -11 -11 -11 -11 -12 -12 -12 -12 -12 -13 -13 -13 -13 -15 -16 -15 -15 -14 -14 -14 -13 -9 -11 -12 -12 -12 -11 -11 -10 -9
-8 -9 -9 -9 -9 -10 -10 -11 -11 -11 -12 -12 -12 -12 -13 -13 -13 -13 -13 -13 -14 -16 -16 -16 -14 -12 -14 -15 -14 -12 -9 -11 -12 -12 -11 -11 -11 -10
-9 -9 -10 -10 -10 -11 -11 -12 -12 -12 -13 -13 -13 -13 -13 -13 -13 -13 -14 -15 -17 -16 -16 -15 -15 -15 -15 -15 -14 -14 -12 -9 -11 -11 -10 -11 -11 -11
-10 -10 -11 -11 -11 -12 -12 -13 -13 -13 -13 -14 -14 -14 -14 -14 -14 -14 -16 -16 -16 -15 -17 -15 -16 -16 -15 -15 -15 -14 -13 -12 -11 -11 -10 -10 -10 -10

GFSNE_850_temp_123.txt.gz
Temp
10 10 11 11 12 13 13 13 12 10 10 8 9 9 10 10 10 9 9 9 8 8 9 8 8 8 8 7 7 7 7 6 6 6 5 5 5 4
9 10 11 11 12 12 12 12 12 11 9 8 8 9 9 9 9 9 8 8 7 8 8 8 7 8 7 6 5 4 3 3 4 4 4 3 3 3
9 10 10 11 11 11 11 11 11 11 10 8 8 8 8 8 8 8 7 7 7 7 7 7 6 5 5 4 3 3 3 3 3 3 3 3 2 1
10 9 10 10 10 10 11 11 11 11 11 10 9 8 7 7 7 7 6 6 6 6 5 5 4 3 2 2 2 2 2 2 2 1 1 1 -0 -1
9 9 9 9 9 10 9 10 10 11 11 9 8 7 7 6 6 5 5 4 5 4 2 2 1 1 1 1 1 1 1 1 -0 -1 -1 -2 -3 -4
9 9 8 9 9 9 9 10 10 9 8 8 7 7 7 6 4 4 3 3 3 1 0 0 -1 -0 0 -0 1 0 -1 -2 -2 -3 -4 -5 -5 -5
9 9 8 8 8 8 8 9 8 7 7 7 7 6 6 4 4 2 1 0 -1 -1 -1 -1 -0 -1 -1 -2 -2 -4 -3 -4 -5 -6 -6 -6 -6 -6
9 8 8 8 8 8 7 7 8 7 7 7 6 6 5 3 2 1 -0 -1 -1 -2 -2 -2 -2 -2 -2 -3 -4 -5 -4 -5 -6 -6 -6 -6 -6 -7
9 9 8 8 8 8 6 6 7 7 6 6 6 5 4 2 0 -1 -2 -2 -2 -2 -3 -3 -3 -3 -4 -4 -5 -5 -6 -6 -6 -6 -6 -6 -7 -7
8 7 7 7 7 7 6 6 6 6 5 5 3 3 0 -1 -2 -2 -3 -4 -4 -4 -3 -4 -5 -4 -4 -5 -5 -5 -6 -6 -6 -6 -6 -7 -6 -6
7 6 6 7 6 6 7 7 6 4 2 1 1 -2 -3 -3 -3 -3 -5 -5 -6 -7 -5 -5 -7 -5 -5 -6 -6 -6 -6 -6 -6 -6 -6 -6 -6 -6
5 5 5 6 6 5 6 6 5 2 -0 -2 -3 -3 -3 -4 -6 -5 -4 -4 -5 -9 -7 -7 -8 -8 -6 -6 -7 -7 -7 -7 -7 -7 -8 -9 -9 -7
5 4 3 3 3 2 3 2 3 -1 -3 -3 -3 -5 -6 -6 -5 -5 -5 -5 -6 -9 -8 -7 -8 -9 -11 -10 -8 -10 -10 -9 -10 -11 -11 -10 -9 -10
5 2 0 -0 -0 -0 -0 -2 -2 -2 -3 -4 -5 -6 -5 -6 -6 -6 -7 -7 -7 -8 -8 -8 -8 -9 -9 -10 -11 -10 -10 -11 -11 -10 -11 -10 -10 -10
2 -1 -3 -3 -3 -3 -2 -3 -4 -5 -5 -6 -6 -6 -7 -7 -7 -7 -7 -7 -8 -8 -9 -9 -9 -9 -9 -11 -12 -12 -11 -10 -10 -11 -10 -10 -10 -9
-2 -3 -4 -4 -4 -4 -5 -5 -6 -8 -7 -7 -7 -8 -9 -9 -9 -8 -9 -9 -10 -12 -11 -9 -9 -10 -9 -11 -13 -12 -11 -11 -11 -10 -10 -11 -10 -9
-3 -4 -5 -5 -6 -6 -8 -8 -8 -8 -7 -8 -8 -9 -9 -9 -9 -9 -9 -11 -13 -12 -13 -12 -11 -11 -11 -11 -12 -12 -11 -11 -12 -11 -11 -10 -10 -9
-5 -6 -7 -7 -7 -8 -8 -8 -8 -8 -8 -8 -9 -9 -9 -10 -10 -10 -10 -11 -13 -13 -13 -13 -13 -13 -12 -11 -11 -11 -11 -12 -11 -11 -11 -11 -10 -9
-5 -7 -8 -9 -8 -8 -8 -8 -8 -9 -9 -9 -9 -10 -10 -10 -11 -11 -11 -11 -11 -13 -13 -13 -13 -14 -13 -13 -12 -11 -11 -10 -10 -9 -10 -10 -10 -10
-7 -8 -9 -10 -10 -9 -8 -9 -9 -10 -10 -10 -10 -10 -11 -11 -12 -13 -13 -12 -12 -14 -14 -14 -14 -14 -13 -14 -13 -10 -12 -13 -12 -12 -11 -10 -10 -10
-11 -11 -11 -10 -10 -10 -9 -10 -10 -10 -11 -11 -11 -11 -11 -13 -13 -13 -15 -14 -14 -15 -15 -15 -15 -13 -14 -14 -13 -12 -12 -12 -12 -11 -11 -11 -10 -10
-11 -11 -11 -10 -10 -10 -9 -10 -11 -11 -11 -11 -11 -12 -12 -13 -15 -15 -15 -15 -15 -16 -15 -15 -15 -15 -14 -14 -13 -13 -12 -10 -10 -11 -10 -10 -10 -10
-10 -11 -10 -10 -10 -11 -12 -13 -13 -12 -12 -12 -13 -12 -13 -14 -13 -15 -15 -16 -16 -16 -16 -16 -16 -15 -14 -14 -13 -13 -12 -11 -11 -11 -10 -10 -10 -9

GFSNE_850_temp_129.txt.gz
Temp
11 10 10 10 10 11 12 12 11 10 10 9 9 9 9 9 9 9 9 9 8 9 9 8 8 8 7 7 7 6 6 6 5 5 5 5 4 4
10 10 10 10 10 10 11 12 11 11 9 9 9 9 9 9 9 9 8 8 8 8 8 8 8 8 7 7 6 5 5 4 3 3 3 3 3 2
10 10 10 9 10 9 10 11 11 10 9 9 9 9 8 8 8 8 8 8 8 8 8 8 7 7 6 5 4 3 2 1 1 2 2 2 1 -0
10 9 9 9 9 9 9 10 12 10 11 10 8 8 8 8 8 8 8 7 8 7 7 6 6 4 3 2 2 1 1 1 1 1 -0 -1 -2 -3
9 9 9 9 9 9 9 9 12 11 11 11 10 8 8 7 7 7 6 6 6 6 5 5 3 2 1 1 -0 -0 0 -0 -0 -1 -2 -3 -3 -4
9 9 10 9 9 9 9 9 11 12 11 11 10 8 8 7 6 6 6 6 5 4 3 1 1 0 -0 -1 -1 -1 -1 -2 -2 -3 -3 -4 -4 -4
9 9 9 9 9 9 10 10 9 11 11 10 10 8 8 7 6 6 5 4 3 2 1 -1 -1 -2 -2 -2 -2 -4 -3 -4 -4 -4 -4 -4 -5 -5
9 9 9 9 9 9 9 9 9 9 9 9 9 8 9 8 7 6 5 4 2 1 -1 -2 -3 -3 -3 -4 -4 -4 -5 -4 -4 -4 -5 -5 -5 -6
9 9 9 9 9 9 8 8 8 9 9 9 9 8 8 8 7 6 4 2 1 -1 -2 -3 -4 -4 -5 -5 -5 -5 -5 -5 -5 -5 -5 -5 -6 -6
9 9 8 9 9 9 8 8 8 8 7 7 7 7 6 6 6 5 2 0 -1 -2 -3 -3 -5 -5 -6 -6 -5 -5 -6 -6 -5 -6 -6 -6 -6 -6
9 9 8 8 9 8 7 8 8 8 7 7 7 7 7 6 4 2 0 -1 -2 -2 -3 -4 -5 -6 -6 -6 -7 -7 -6 -6 -6 -6 -6 -6 -6 -7
8 8 6 6 8 8 7 8 8 7 7 7 7 6 5 3 1 -1 -1 -1 -1 -3 -4 -5 -5 -5 -7 -7 -8 -7 -7 -8 -7 -7 -7 -7 -7 -6
7 5 4 4 5 6 7 7 7 5 4 5 5 2 -0 -1 -2 -3 -3 -2 -3 -3 -4 -5 -5 -5 -5 -7 -7 -8 -8 -8 -8 -8 -7 -7 -7 -7
6 5 4 3 4 5 5 6 6 5 3 2 0 -1 -2 -3 -4 -3 -4 -4 -4 -4 -5 -5 -5 -6 -6 -7 -7 -8 -8 -8 -7 -7 -6 -7 -7 -7
5 4 3 1 2 3 4 3 3 1 -0 -2 -2 -4 -4 -5 -4 -4 -5 -5 -5 -5 -6 -6 -6 -6 -7 -7 -7 -8 -8 -7 -6 -7 -6 -7 -7 -7
4 3 1 1 1 1 -0 -1 -2 -2 -2 -2 -3 -5 -7 -6 -5 -5 -5 -6 -6 -7 -7 -7 -8 -8 -8 -8 -8 -8 -8 -7 -8 -7 -7 -7 -7 -8
3 -0 -1 -1 -2 -3 -4 -4 -4 -4 -4 -5 -5 -7 -6 -6 -6 -7 -7 -7 -6 -7 -8 -9 -9 -9 -8 -8 -9 -8 -8 -9 -9 -8 -8 -7 -8 -9
0 -1 -4 -5 -4 -4 -5 -6 -6 -5 -6 -6 -6 -6 -6 -7 -6 -7 -7 -8 -8 -10 -10 -9 -9 -9 -9 -9 -9 -9 -9 -9 -9 -9 -9 -8 -8 -9
-3 -5 -6 -7 -7 -7 -6 -6 -8 -8 -7 -6 -6 -7 -7 -7 -7 -8 -9 -9 -9 -10 -10 -9 -9 -9 -9 -10 -10 -10 -10 -10 -9 -9 -9 -9 -9 -9
-5 -6 -6 -7 -7 -7 -8 -9 -8 -8 -8 -8 -8 -8 -8 -8 -9 -9 -9 -9 -9 -10 -10 -10 -10 -10 -10 -11 -11 -11 -12 -11 -11 -11 -10 -10 -10 -9
-7 -7 -8 -8 -9 -9 -10 -8 -8 -8 -8 -8 -8 -9 -9 -9 -9 -9 -9 -9 -10 -10 -10 -10 -11 -11 -12 -12 -12 -12 -11 -12 -12 -12 -11 -11 -10 -9
-8 -8 -9 -9 -9 -8 -8 -9 -9 -9 -9 -9 -9 -9 -9 -10 -10 -10 -10 -10 -10 -10 -11 -11 -12 -12 -13 -13 -14 -13 -12 -11 -11 -11 -11 -11 -11 -10
-8 -8 -8 -8 -8 -8 -9 -9 -9 -9 -10 -10 -10 -10 -10 -10 -10 -10 -10 -11 -11 -11 -12 -12 -12 -12 -13 -14 -14 -14 -13 -12 -11 -10 -10 -10 -10 -10

GFSNE_850_temp_132.txt.gz
Temp
11 11 11 11 10 10 9 10 12 10 9 9 10 9 9 9 9 9 9 9 9 9 8 8 8 8 8 8 7 7 6 6 5 5 4 3 3 3
11 11 10 10 10 9 9 10 10 11 9 10 9 10 9 9 9 9 9 9 9 9 8 8 8 7 7 7 7 6 6 5 4 3 2 2 2 2
10 10 10 10 10 9 9 9 10 10 10 9 9 9 8 8 9 9 9 9 9 8 8 7 7 7 7 6 6 5 4 3 2 1 1 1 1 -0
10 10 10 9 9 10 9 9 10 9 10 10 8 8 8 8 9 9 8 8 8 8 8 6 7 6 6 4 5 3 2 1 1 1 -0 -0 -2 -3
10 9 9 9 10 9 9 9 9 9 10 11 9 8 8 8 8 8 8 7 7 7 6 5 5 5 3 2 1 0 -0 -0 -0 -1 -2 -3 -3 -4
10 9 9 9 9 9 10 9 9 9 9 9 9 8 8 8 7 7 5 6 6 5 3 5 3 2 1 0 -1 -1 -1 -1 -2 -3 -3 -4 -4 -4
10 9 9 9 9 9 9 9 9 9 8 9 9 8 7 8 8 7 5 6 5 4 3 1 1 -0 -0 -2 -2 -2 -2 -3 -3 -4 -4 -4 -4 -5
10 10 10 9 9 9 9 9 9 10 9 9 9 9 8 7 8 7 5 5 3 3 1 1 -0 -1 -2 -3 -4 -4 -4 -4 -4 -4 -4 -5 -5 -5
10 9 9 9 9 9 9 9 9 9 9 10 10 9 9 9 9 8 6 5 4 4 0 -1 -3 -4 -5 -5 -6 -6 -5 -5 -5 -5 -5 -5 -5 -6
10 9 9 9 9 9 9 9 9 9 9 9 9 9 9 9 8 8 6 5 2 1 -0 -2 -5 -6 -6 -7 -7 -6 -5 -5 -5 -5 -5 -5 -6 -6
9 9 9 9 9 8 8 8 9 8 8 8 7 7 7 7 7 7 4 4 0 -2 -2 -4 -5 -6 -7 -7 -7 -6 -6 -6 -6 -5 -5 -6 -6 -7
9 9 9 8 8 8 7 9 8 8 8 7 7 6 6 6 5 4 4 4 0 -3 -4 -4 -5 -6 -8 -8 -8 -8 -7 -7 -7 -6 -6 -6 -7 -7
8 8 8 8 8 6 6 8 8 7 8 7 7 6 5 4 3 3 1 -0 -0 -1 -2 -4 -5 -6 -6 -7 -8 -9 -8 -8 -8 -8 -7 -7 -7 -6
8 7 7 7 5 4 5 6 7 7 6 5 3 3 1 0 -1 -1 -2 -3 -3 -3 -3 -4 -4 -5 -5 -6 -8 -9 -8 -8 -8 -8 -8 -7 -7 -7
6 6 6 5 4 3 3 3 4 4 3 3 2 0 -1 -1 -2 -2 -3 -5 -4 -4 -5 -5 -5 -5 -6 -6 -6 -8 -9 -8 -8 -8 -8 -7 -7 -7
5 5 4 2 2 3 2 2 2 2 2 1 -1 -2 -3 -3 -3 -5 -3 -4 -4 -4 -5 -6 -6 -6 -6 -7 -7 -8 -8 -8 -8 -8 -8 -8 -7 -7
4 3 1 -0 0 0 -1 -0 -0 -1 -1 -2 -2 -4 -4 -5 -5 -5 -5 -5 -4 -6 -6 -7 -7 -7 -7 -7 -7 -8 -8 -8 -8 -8 -7 -7 -8 -8
2 1 -1 -2 -1 -2 -2 -3 -4 -3 -3 -3 -4 -5 -5 -5 -5 -6 -6 -6 -6 -6 -7 -7 -7 -7 -8 -8 -8 -9 -9 -9 -9 -9 -8 -7 -8 -9
1 -2 -2 -3 -4 -5 -5 -5 -5 -5 -5 -5 -7 -7 -5 -6 -6 -6 -7 -7 -7 -8 -8 -8 -8 -8 -9 -10 -10 -10 -10 -10 -9 -9 -9 -9 -8 -8
-4 -5 -5 -6 -6 -6 -7 -6 -6 -7 -7 -8 -7 -6 -7 -6 -7 -8 -8 -8 -8 -8 -8 -9 -9 -9 -9 -9 -10 -11 -11 -10 -10 -9 -9 -9 -9 -9
-8 -7 -7 -7 -7 -6 -6 -7 -7 -9 -8 -7 -7 -7 -7 -7 -8 -8 -9 -9 -9 -9 -10 -10 -10 -10 -10 -10 -10 -10 -11 -12 -11 -10 -11 -10 -9 -9
-7 -7 -7 -7 -7 -7 -7 -8 -8 -7 -7 -8 -8 -8 -9 -8 -8 -9 -9 -9 -10 -10 -10 -10 -10 -11 -11 -11 -11 -12 -12 -11 -12 -12 -11 -11 -11 -10
-8 -8 -9 -8 -8 -9 -8 -8 -8 -8 -8 -8 -8 -9 -9 -9 -9 -10 -10 -11 -11 -11 -11 -11 -11 -11 -12 -12 -12 -11 -12 -12 -11 -10 -11 -11 -11 -10

GFSNE_850_temp_138.txt.gz
Temp
13 13 13 12 12 12 11 11 11 9 8 9 10 10 10 10 9 9 9 8 8 8 8 7 7 7 7 7 7 7 7 7 7 6 6 5 5 5
13 13 12 12 12 11 11 10 10 9 9 9 10 10 10 9 9 9 9 8 8 8 8 8 8 8 7 7 7 7 6 6 6 5 6 4 5 4
12 12 12 12 11 11 11 10 10 9 9 8 9 9 9 9 9 9 9 8 8 8 8 8 8 8 7 7 7 7 7 6 5 5 4 3 3 2
12 12 12 11 11 11 10 10 10 10 9 9 9 9 8 9 9 9 9 9 8 9 8 7 7 7 7 7 7 6 6 5 6 5 3 0 1 1
12 11 11 11 11 11 10 10 10 10 9 9 8 9 8 8 8 8 8 8 8 8 8 8 7 7 7 7 6 5 5 5 4 3 2 1 -1 -1
11 11 11 11 11 11 10 10 10 9 9 8 8 8 7 8 7 8 7 7 7 7 7 7 7 7 6 5 5 5 5 5 3 2 0 -1 -2 -2
11 11 11 11 11 10 10 9 9 9 9 8 7 7 6 6 7 7 7 7 6 6 6 7 6 5 4 3 3 4 4 2 2 0 -3 -3 -3 -3
11 10 9 9 10 9 9 9 9 9 9 9 8 8 7 7 7 7 7 6 3 4 4 5 4 3 2 2 2 2 1 1 -0 -4 -5 -4 -4 -4
11 11 11 10 9 9 9 9 9 9 9 9 8 8 8 8 8 7 7 7 7 6 5 3 2 1 0 0 0 0 -1 -1 -3 -7 -4 -4 -4 -4
10 10 11 10 10 9 9 9 9 8 9 9 9 9 9 8 9 9 8 7 5 4 4 1 0 -0 -0 -1 -2 -2 -2 -3 -6 -6 -4 -5 -5 -5
10 10 10 9 10 8 9 9 9 9 9 9 9 8 8 8 8 6 6 5 2 2 2 1 -0 -1 -3 -2 -3 -4 -4 -5 -8 -5 -5 -5 -5 -6
10 10 10 10 9 9 9 9 9 9 9 9 8 8 7 6 6 6 8 6 4 1 1 0 1 -0 -5 -6 -5 -5 -5 -9 -6 -5 -5 -6 -6 -6
9 9 10 10 9 9 9 9 8 8 8 8 7 6 5 4 3 3 4 3 5 4 5 3 3 -0 -2 -4 -6 -7 -7 -8 -7 -6 -6 -6 -6 -6
8 10 9 9 9 8 9 9 8 8 8 7 6 4 3 2 1 2 1 1 2 2 5 4 4 0 -1 -4 -6 -7 -9 -8 -7 -7 -7 -7 -7 -7
8 8 9 8 8 8 8 8 7 7 6 5 3 2 2 1 0 -1 -1 -0 1 1 1 1 -0 -1 -3 -2 -3 -5 -7 -8 -8 -8 -7 -7 -7 -7
6 6 7 8 8 7 7 7 6 5 4 3 2 1 -0 -1 -1 -1 -1 0 0 -1 -1 -2 -3 -3 -4 -6 -4 -5 -6 -7 -8 -8 -7 -7 -7 -7
4 4 4 5 6 6 5 4 3 2 1 0 0 -1 -2 -2 -2 -2 -1 -1 -1 -3 -4 -5 -6 -6 -6 -5 -5 -6 -7 -8 -7 -8 -8 -8 -7 -7
1 3 2 1 2 4 4 2 0 -0 -1 -1 -1 -2 -2 -2 -2 -4 -3 -3 -2 -4 -4 -6 -6 -6 -6 -7 -8 -7 -8 -8 -8 -8 -8 -8 -8 -8
-1 -1 -2 -2 -1 -1 1 0 -1 -2 -2 -2 -2 -3 -4 -4 -4 -4 -4 -4 -5 -6 -6 -6 -6 -6 -6 -7 -9 -9 -9 -9 -9 -8 -8 -8 -8 -9
-4 -3 -3 -4 -4 -4 -4 -3 -3 -3 -4 -4 -4 -4 -5 -5 -5 -6 -6 -5 -5 -6 -7 -8 -8 -8 -7 -7 -8 -9 -9 -9 -9 -9 -9 -9 -9 -9
-7 -6 -6 -6 -7 -7 -7 -7 -6 -6 -5 -5 -5 -6 -7 -8 -8 -7 -6 -5 -6 -7 -7 -8 -8 -8 -8 -8 -8 -9 -10 -10 -10 -10 -10 -10 -10 -9
-8 -8 -8 -8 -8 -9 -9 -9 -8 -7 -7 -7 -7 -8 -8 -8 -8 -7 -7 -7 -7 -8 -8 -8 -9 -9 -9 -9 -9 -10 -11 -11 -10 -10 -11 -11 -11 -10
-10 -10 -10 -9 -8 -8 -8 -8 -8 -8 -8 -8 -9 -9 -8 -7 -7 -8 -8 -8 -8 -8 -8 -8 -9 -9 -9 -9 -10 -10 -11 -11 -12 -12 -12 -12 -11 -11

GFSNE_850_temp_141.txt.gz
Temp
12 11 12 12 13 12 13 12 11 10 10 11 11 12 11 10 10 9 9 8 8 8 7 7 7 7 7 7 7 7 7 8 7 7 7 7 6 5
12 11 12 12 13 13 12 12 11 11 10 11 12 12 12 11 10 9 9 8 8 8 8 7 7 7 7 7 7 7 7 7 7 6 6 6 6 5
12 11 11 12 12 13 12 11 11 10 10 10 10 11 10 10 10 9 8 8 8 7 7 7 7 7 7 7 7 7 7 7 6 6 6 6 5 4
12 11 12 12 11 12 12 12 11 11 10 9 10 10 10 10 9 9 9 8 8 8 7 7 7 7 7 7 7 7 7 6 6 5 6 5 4 2
12 11 11 11 11 11 11 11 11 10 10 10 10 9 9 9 8 8 8 8 8 8 7 7 7 7 7 6 6 6 6 6 5 5 4 5 3 -0
11 11 11 11 11 11 11 11 11 10 10 10 9 9 9 9 8 8 8 7 8 7 7 7 7 7 6 6 7 6 6 5 5 4 3 2 -0 -2
11 11 11 11 11 11 11 11 11 10 9 9 9 9 9 8 8 7 6 7 7 7 6 7 7 7 6 6 6 6 5 4 3 3 1 -0 -2 -5
10 11 11 11 10 10 11 11 10 10 10 10 9 9 9 8 7 6 5 5 4 5 5 6 6 6 6 6 5 4 3 3 2 0 -1 -3 -5 -6
10 10 11 11 10 10 10 10 10 9 9 9 9 9 8 9 8 6 6 5 6 6 5 3 3 3 3 2 2 2 2 1 1 -1 -1 -3 -7 -5
9 9 10 10 10 10 9 9 9 9 9 9 9 9 9 9 9 8 7 4 3 3 4 4 2 0 0 0 -0 -0 -1 -0 -1 -1 -2 -7 -6 -5
9 9 9 9 9 9 9 9 9 9 9 9 9 9 9 9 8 6 4 3 1 1 2 3 2 -2 -2 -2 -3 -3 -2 -2 -3 -3 -5 -8 -5 -5
9 9 9 9 9 10 9 9 9 10 9 9 9 9 9 8 8 7 6 5 2 -0 0 1 2 -1 -5 -5 -4 -4 -5 -5 -4 -5 -7 -6 -5 -5
8 9 8 8 9 9 9 9 9 9 9 9 9 9 8 7 6 5 4 4 3 2 4 3 2 -1 -1 -3 -6 -6 -5 -5 -6 -7 -7 -5 -5 -6
7 8 8 8 8 9 9 9 9 9 9 9 8 8 7 5 4 4 2 1 1 2 3 0 2 0 -1 -2 -5 -7 -7 -7 -7 -7 -6 -6 -6 -6
6 7 7 7 8 8 9 9 8 8 8 8 8 7 7 5 4 3 0 -0 -1 -1 -0 0 -0 -0 -0 1 -2 -7 -7 -7 -8 -7 -7 -7 -7 -7
4 5 6 6 7 9 7 8 8 8 7 7 7 5 4 2 1 0 -1 -1 -2 -2 -1 -2 -2 -1 -2 -2 -2 -5 -6 -5 -6 -7 -7 -7 -7 -7
-0 1 3 3 4 5 5 7 7 6 6 5 4 3 1 0 -1 -2 -2 -2 -2 -2 -3 -4 -4 -4 -4 -4 -6 -6 -5 -6 -7 -7 -8 -7 -7 -7
-2 -2 0 1 1 2 4 4 4 4 3 3 2 0 -1 -2 -3 -4 -3 -3 -2 -4 -5 -5 -6 -5 -6 -8 -7 -5 -6 -7 -7 -8 -8 -8 -8 -8
-4 -3 -2 -1 -1 -1 1 0 1 0 0 1 0 -2 -2 -3 -4 -4 -4 -4 -4 -5 -6 -6 -6 -5 -7 -7 -8 -8 -7 -8 -8 -8 -8 -8 -8 -8
-6 -5 -4 -4 -3 -3 -3 -4 -3 -3 -2 -3 -3 -4 -4 -4 -5 -5 -5 -4 -5 -6 -7 -8 -8 -8 -6 -6 -8 -9 -9 -9 -9 -9 -9 -9 -9 -9
-8 -7 -6 -6 -6 -6 -6 -6 -5 -6 -6 -5 -5 -5 -5 -5 -5 -5 -6 -6 -7 -8 -7 -8 -7 -7 -7 -7 -7 -9 -10 -9 -9 -9 -9 -10 -10 -9
-10 -9 -9 -8 -7 -7 -8 -8 -8 -9 -8 -8 -7 -7 -7 -6 -7 -7 -7 -7 -7 -7 -7 -8 -8 -8 -7 -7 -8 -9 -10 -10 -10 -10 -10 -10 -10 -11
-11 -11 -11 -10 -10 -9 -9 -8 -8 -8 -8 -8 -8 -8 -8 -9 -9 -9 -9 -7 -7 -7 -8 -8 -8 -9 -8 -9 -9 -10 -10 -10 -10 -10 -10 -10 -10 -10

GFSNE_850_temp_144.txt.gz
Temp
11 12 12 12 11 12 11 12 13 13 10 11 12 13 12 11 11 10 10 10 10 9 8 7 7 7 7 7 7 7 7 7 8 8 8 7 7 6
11 12 11 12 12 11 11 11 12 13 14 12 11 11 13 13 12 11 10 10 9 9 9 8 8 7 8 7 7 7 7 7 7 7 7 7 6 6
12 12 11 11 12 12 11 11 11 11 11 12 11 10 12 12 12 11 11 9 9 9 9 8 7 8 7 7 7 7 7 7 7 7 6 6 6 5
12 11 11 11 11 12 11 12 11 11 11 11 11 10 11 11 11 10 10 10 9 9 8 8 8 8 7 7 7 7 7 7 6 6 6 6 5 4
11 11 11 11 11 11 11 11 11 11 11 11 11 10 11 10 10 10 10 9 9 8 8 7 7 7 7 6 6 7 7 7 6 6 6 5 5 4
11 11 11 11 11 11 11 11 11 11 11 11 11 10 10 10 10 9 10 9 9 8 8 7 7 7 7 7 6 6 6 6 6 6 6 5 4 2
10 10 10 11 11 11 11 11 11 11 11 10 10 10 10 10 10 9 9 9 8 7 8 7 7 7 7 6 6 6 6 6 6 6 5 4 3 3
10 10 10 10 11 11 11 11 11 11 11 10 10 10 10 10 10 9 9 7 5 6 6 6 7 7 7 7 7 7 6 6 6 5 5 4 2 3
9 9 10 10 10 11 11 10 10 10 10 11 11 11 10 10 10 9 9 8 7 6 5 4 4 5 6 6 6 6 6 6 5 2 2 2 0 0
9 9 9 9 9 10 10 10 10 10 10 10 10 10 10 9 9 9 9 7 5 3 3 2 2 0 2 4 3 2 2 1 1 1 0 -1 -1 -2
9 8 8 9 9 9 9 10 10 10 10 9 9 9 9 9 9 8 8 7 3 3 2 1 0 -1 -1 -1 0 -1 -1 -0 -1 -1 -1 -2 -2 -6
8 9 8 9 9 9 9 10 9 10 10 9 9 9 9 9 9 9 8 8 5 2 2 1 0 -0 -3 -4 -2 -2 -3 -3 -3 -3 -3 -3 -6 -8
6 8 7 8 9 9 8 9 9 10 9 9 9 9 9 9 9 9 9 7 6 5 5 2 0 -1 -2 -4 -6 -4 -4 -4 -5 -5 -5 -7 -8 -9
5 5 6 7 8 9 8 8 8 9 9 9 9 9 9 9 9 8 7 5 3 3 3 1 0 -0 -1 -4 -6 -7 -6 -5 -5 -6 -7 -8 -8 -8
1 3 4 6 7 8 9 9 8 9 9 9 9 9 9 8 8 6 5 3 1 0 -0 -0 0 -0 -2 -1 -3 -8 -7 -7 -7 -8 -8 -8 -8 -6
0 1 3 5 5 7 7 8 7 7 8 7 9 8 8 8 6 4 3 2 -1 -1 -1 -2 -1 -2 -2 -3 -2 -4 -6 -7 -8 -8 -7 -8 -7 -8
-1 -2 -0 1 2 3 4 5 6 7 7 6 7 6 6 5 3 2 1 0 -1 -2 -2 -3 -3 -3 -4 -3 -3 -5 -7 -7 -7 -7 -9 -8 -8 -7
-4 -4 -3 -2 -1 -0 1 2 2 4 6 6 4 4 5 4 2 0 -1 -2 -2 -3 -3 -4 -4 -6 -5 -6 -6 -7 -7 -7 -8 -8 -9 -9 -9 -9
-6 -5 -5 -4 -3 -2 -1 0 -1 -1 1 1 0 2 2 1 -1 -2 -3 -4 -4 -4 -5 -6 -6 -5 -5 -7 -9 -8 -7 -8 -8 -9 -10 -10 -9 -9
-7 -7 -6 -6 -5 -4 -3 -2 -2 -2 -2 -1 -2 -1 -1 -1 -3 -4 -5 -5 -5 -6 -7 -7 -7 -7 -6 -8 -9 -9 -10 -9 -10 -10 -9 -9 -9 -9
-10 -9 -8 -7 -7 -6 -5 -4 -4 -4 -4 -4 -5 -4 -4 -4 -5 -5 -6 -6 -6 -8 -8 -8 -8 -8 -7 -7 -9 -10 -10 -10 -10 -10 -9 -10 -9 -9
-11 -11 -10 -9 -9 -9 -8 -7 -7 -7 -8 -7 -7 -7 -7 -6 -6 -7 -8 -9 -9 -9 -9 -9 -9 -8 -9 -9 -11 -9 -10 -10 -9 -9 -9 -9 -10 -9
-13 -12 -11 -11 -11 -10 -10 -10 -9 -8 -8 -8 -8 -9 -9 -9 -9 -9 -9 -8 -9 -10 -10 -11 -11 -10 -9 -9 -10 -11 -10 -10 -10 -10 -10 -10 -10 -10

GFSNE_850_temp_147.txt.gz
Temp
13 13 13 13 11 11 12 12 13 12 12 10 12 11 11 11 11 10 10 12 11 11 10 10 10 9 8 8 8 9 9 8 8 7 7 7 8 7
13 12 11 13 12 12 11 11 12 12 12 12 13 12 12 11 10 10 11 11 11 10 10 9 10 10 8 8 8 8 8 8 7 7 7 7 7 6
11 11 11 11 12 11 11 11 11 12 11 12 12 11 12 13 11 12 11 11 10 10 10 10 9 9 8 8 7 8 7 7 7 8 7 7 6 6
11 11 11 11 11 11 11 11 11 11 11 11 12 12 11 11 12 11 12 10 11 10 10 9 9 9 8 8 8 7 7 7 7 8 7 7 7 6
10 11 10 10 11 11 11 11 11 11 11 11 11 11 11 10 11 10 11 10 10 10 9 9 8 8 7 7 7 7 7 7 7 7 7 7 7 6
10 10 10 10 11 11 11 11 11 11 11 11 11 11 11 11 10 11 11 10 10 10 9 9 9 8 7 7 7 7 7 7 7 7 7 7 7 6
10 9 10 10 10 11 11 11 11 11 11 10 10 11 11 11 10 11 11 10 10 10 9 9 9 8 7 7 6 6 7 7 7 7 7 6 6 6
10 10 9 10 10 10 10 10 11 11 11 10 10 10 11 11 10 10 11 10 9 10 10 9 8 7 7 7 7 6 6 6 6 6 6 6 6 5
9 9 8 9 9 10 10 10 10 11 11 10 10 11 11 11 11 10 10 10 9 10 9 8 8 7 6 7 7 7 7 6 6 6 6 6 5 3
7 7 7 9 9 8 9 10 10 9 10 10 10 10 11 11 10 10 10 10 9 9 8 6 6 5 5 5 5 5 5 7 6 6 6 5 4 1
6 7 7 8 9 8 8 9 9 9 10 10 10 10 10 9 9 9 10 9 8 8 7 6 5 4 3 1 1 1 1 2 4 4 2 -0 1 -0
7 7 7 7 7 8 7 8 8 9 9 9 10 9 10 9 9 10 9 9 8 8 8 5 4 2 -1 -1 -1 -1 -1 -1 -2 -1 -1 -0 -1 -2
4 6 7 7 8 8 7 7 8 9 9 9 10 9 9 9 9 9 9 9 8 8 8 7 5 2 0 -1 -3 -3 -3 -3 -3 -3 -3 -3 -3 -4
0 3 5 7 7 7 7 6 7 8 8 8 8 9 8 9 9 9 9 8 8 8 6 5 5 4 1 -2 -3 -4 -5 -5 -5 -5 -5 -6 -6 -6
-3 -1 1 3 4 6 6 6 7 7 7 8 8 8 9 8 9 9 8 7 6 5 4 3 2 2 0 -0 -1 -4 -6 -7 -6 -6 -6 -7 -7 -8
-4 -2 -1 1 2 2 3 5 6 6 6 7 8 8 8 7 8 8 8 6 5 3 2 1 0 -0 -0 -2 -2 -4 -6 -6 -7 -7 -7 -8 -8 -8
-5 -3 -2 -1 0 1 2 3 4 4 5 5 6 7 7 8 7 7 5 5 3 2 0 -1 -2 -2 -2 -3 -4 -4 -5 -7 -7 -8 -8 -8 -8 -8
-7 -6 -6 -4 -3 -1 -1 0 1 1 1 3 3 5 5 5 5 5 4 1 1 -0 -1 -2 -2 -4 -5 -6 -5 -5 -7 -8 -8 -8 -8 -8 -8 -8
-9 -8 -8 -7 -6 -4 -3 -2 -2 -1 -1 -0 1 1 2 3 2 2 0 0 -2 -1 -2 -3 -4 -4 -5 -7 -9 -8 -8 -8 -8 -9 -9 -8 -9 -9
-10 -9 -9 -9 -8 -6 -5 -5 -4 -3 -2 -2 -1 -1 -2 -0 -1 -0 -1 -2 -3 -3 -4 -5 -6 -6 -6 -7 -9 -9 -9 -8 -8 -9 -9 -9 -9 -9
-11 -10 -10 -10 -10 -8 -7 -7 -6 -5 -5 -4 -4 -3 -3 -3 -2 -2 -3 -4 -4 -5 -6 -8 -7 -7 -7 -7 -9 -10 -9 -9 -9 -9 -9 -9 -9 -9
-12 -11 -11 -11 -11 -10 -10 -9 -8 -7 -7 -6 -6 -5 -5 -5 -6 -6 -6 -6 -7 -8 -8 -7 -8 -7 -7 -8 -10 -10 -10 -10 -10 -10 -10 -9 -9 -9
-13 -12 -12 -11 -11 -11 -11 -10 -10 -9 -9 -8 -8 -8 -7 -8 -8 -8 -8 -8 -8 -8 -8 -8 -8 -9 -9 -9 -9 -10 -10 -10 -10 -10 -10 -9 -9 -9

GFSNE_850_temp_150.txt.gz
Temp
10 11 11 12 13 12 12 13 12 10 11 12 11 12 12 12 11 11 10 11 11 10 11 11 11 11 10 9 11 9 9 10 9 9 8 7 7 7
12 11 11 12 13 12 13 14 13 11 11 12 12 12 13 12 12 11 11 11 11 11 11 11 11 10 10 10 9 10 9 9 9 8 8 7 7 7
11 11 11 11 12 12 12 13 13 11 11 12 12 12 11 11 11 11 11 11 11 10 10 10 10 10 10 10 9 9 9 9 9 8 7 7 7 7
11 11 10 11 11 11 11 11 11 11 11 11 12 11 11 11 11 10 11 10 10 10 10 9 10 9 10 9 9 8 8 8 8 8 7 7 7 7
10 10 11 10 11 11 11 11 11 11 11 11 11 11 11 11 11 11 10 10 11 10 10 9 9 9 9 8 8 8 8 7 7 7 7 7 7 7
10 10 10 10 10 10 10 11 11 11 10 11 11 11 11 11 11 11 11 11 10 10 9 9 9 9 9 8 7 7 7 7 7 7 7 7 7 7
9 9 10 9 9 9 10 10 10 10 10 10 11 10 10 11 11 11 10 10 10 10 9 9 9 9 9 8 8 7 7 7 7 7 7 7 6 6
9 9 8 8 9 9 9 9 9 10 10 10 10 10 11 11 10 10 10 10 10 10 9 9 9 8 8 8 8 8 7 7 6 6 6 6 6 7
7 7 8 8 9 9 9 9 9 9 10 10 10 10 10 11 10 10 10 10 10 10 10 10 9 9 8 8 8 8 8 7 7 7 5 6 6 6
5 5 6 7 7 7 8 9 9 9 9 9 10 9 9 9 10 10 10 10 10 9 9 9 9 8 8 8 8 7 7 7 6 7 6 6 6 5
4 4 4 6 6 7 8 9 9 8 8 9 9 9 9 9 10 9 9 10 9 9 9 8 8 8 7 8 7 7 7 6 5 5 6 6 6 5
3 2 3 4 5 6 7 7 7 8 8 9 9 9 9 9 9 9 9 9 9 9 9 8 8 7 6 5 5 5 5 3 2 3 3 2 1 3
-1 0 1 2 3 3 4 5 5 7 8 7 8 8 8 9 8 8 10 9 9 9 9 9 8 7 5 5 3 2 1 0 -1 -1 -1 -0 -1 -2
-2 -2 -2 -0 2 1 2 4 4 5 6 6 7 8 8 8 9 8 9 9 9 9 9 9 8 8 7 4 3 0 -1 -2 -2 -2 -2 -2 -3 -3
-5 -4 -2 -1 -1 1 1 2 3 4 4 5 6 7 8 8 8 8 8 7 7 7 7 7 7 7 5 5 4 2 -1 -4 -4 -3 -3 -3 -3 -4
-5 -3 -3 -2 -2 -1 0 1 2 2 2 4 5 6 7 7 6 7 7 7 7 6 5 5 4 4 3 2 2 1 -0 -1 -4 -5 -5 -5 -6 -6
-7 -6 -6 -7 -6 -4 -2 -1 -1 -0 1 2 3 5 5 5 5 5 5 6 6 5 4 2 0 1 0 1 -0 -2 -2 -3 -4 -5 -6 -7 -7 -7
-9 -9 -9 -8 -8 -8 -6 -4 -3 -2 -1 0 1 2 3 2 3 3 3 4 5 5 2 2 -0 -2 -2 -3 -3 -3 -4 -4 -5 -6 -7 -7 -8 -8
-10 -10 -9 -10 -10 -9 -8 -7 -5 -4 -3 -2 -2 -1 1 1 1 2 0 1 1 1 1 2 -0 -1 -2 -4 -6 -6 -4 -6 -7 -8 -8 -8 -8 -8
-11 -11 -10 -10 -11 -11 -10 -8 -7 -6 -5 -4 -4 -3 -2 -1 -1 -1 -0 -1 -1 -2 -1 -2 -2 -1 -2 -4 -6 -8 -8 -6 -7 -8 -9 -9 -8 -8
-12 -11 -11 -11 -11 -11 -11 -10 -9 -8 -7 -6 -6 -5 -3 -4 -3 -3 -3 -2 -3 -3 -3 -4 -5 -5 -5 -5 -7 -9 -9 -8 -7 -8 -9 -9 -9 -9
-14 -13 -12 -12 -11 -11 -11 -11 -10 -10 -9 -8 -7 -7 -6 -5 -5 -5 -4 -4 -5 -5 -5 -6 -7 -7 -6 -6 -8 -9 -9 -9 -9 -9 -9 -9 -9 -9
-15 -14 -14 -13 -12 -12 -11 -11 -11 -10 -10 -10 -9 -8 -8 -7 -6 -6 -6 -6 -6 -6 -7 -7 -7 -7 -8 -8 -9 -10 -10 -9 -9 -9 -9 -9 -9 -9

GFSNE_850_temp_156.txt.gz
Temp
12 13 14 13 13 13 11 12 13 10 10 11 12 12 12 12 13 13 13 13 13 12 11 11 10 9 10 9 9 9 9 9 9 9 10 9 9 9
13 13 13 13 12 12 11 11 11 10 10 11 11 12 12 11 12 12 13 13 13 12 11 11 10 10 10 10 9 9 9 8 8 8 9 9 9 9
12 13 12 11 11 11 10 11 11 10 10 11 11 11 12 12 12 12 12 12 12 12 11 11 11 10 10 10 10 9 9 8 8 8 8 9 9 8
10 11 11 11 10 9 10 10 10 10 10 11 12 11 11 12 12 12 12 13 12 12 12 11 10 10 10 10 10 10 9 9 8 9 8 8 8 8
9 9 9 9 9 9 9 9 9 10 10 11 11 11 11 11 11 12 11 12 13 12 11 11 11 10 10 10 10 10 9 9 9 8 8 8 8 8
7 7 8 8 8 9 9 9 9 9 10 10 10 10 10 11 11 11 11 12 12 11 11 12 11 11 10 10 10 10 9 9 9 9 8 8 7 7
3 5 6 7 8 8 9 9 9 9 9 10 10 10 9 10 10 11 10 10 11 11 12 11 11 11 10 10 10 9 9 9 9 8 8 8 7 7
1 1 4 6 7 8 8 8 8 8 8 8 9 9 9 9 10 9 10 9 10 10 11 11 12 11 10 10 10 10 9 9 9 8 8 7 7 7
-1 0 2 4 5 6 6 5 6 7 8 8 8 8 8 9 9 9 9 10 10 10 10 10 11 11 11 10 10 10 9 9 9 9 8 8 7 7
2 2 -1 -0 2 6 6 5 6 6 6 7 8 8 8 8 8 9 9 9 9 9 9 9 10 10 10 10 10 9 9 9 9 9 8 8 8 8
-2 -4 -3 -2 -1 3 5 5 5 6 6 7 7 8 9 9 8 8 9 9 9 9 9 9 9 9 9 9 9 10 9 9 8 8 8 8 8 8
-3 -2 -3 -4 -1 1 3 3 4 5 7 7 6 7 7 8 6 7 8 8 9 9 9 8 8 8 8 9 9 9 9 9 8 8 8 8 8 7
-5 -4 -4 -4 -2 -1 -1 -1 -0 2 5 6 7 7 7 7 6 7 7 8 8 8 8 8 8 8 8 8 9 10 9 9 8 8 9 8 7 7
-7 -7 -6 -6 -6 -6 -6 -5 -3 -2 1 2 4 6 7 7 6 5 7 7 7 8 8 7 8 8 8 7 7 8 8 8 8 7 7 6 6 6
-10 -9 -8 -8 -7 -7 -7 -4 -2 -2 -3 -2 -2 1 3 4 4 5 5 6 7 7 7 6 6 7 7 7 7 7 8 7 7 6 5 5 5 5
-9 -9 -8 -8 -8 -8 -7 -5 -4 -4 -4 -4 -4 -3 -3 -1 0 2 3 4 5 5 6 7 6 5 6 6 6 6 6 6 6 4 2 3 3 1
-9 -8 -8 -8 -8 -8 -7 -7 -6 -5 -5 -4 -4 -4 -3 -1 -1 1 2 3 3 4 4 5 5 5 4 5 5 4 4 4 4 3 1 -1 -2 -1
-9 -9 -10 -10 -10 -10 -10 -9 -8 -8 -8 -7 -6 -5 -4 -2 -0 1 1 2 1 2 2 2 3 3 2 2 2 2 3 3 0 1 -0 -2 -3 -3
-10 -11 -11 -11 -12 -11 -11 -11 -11 -10 -9 -9 -8 -6 -6 -4 -3 -0 -0 1 1 -0 0 1 0 1 1 -0 1 0 0 2 0 -1 -3 -4 -3 -4
-11 -12 -12 -12 -12 -12 -12 -12 -11 -11 -10 -10 -9 -8 -8 -7 -5 -4 -3 -2 -1 -1 -2 -2 -1 -1 -1 -0 0 -1 -2 -2 -2 -4 -5 -5 -5 -4
-13 -13 -13 -13 -13 -12 -12 -12 -12 -12 -11 -11 -10 -9 -9 -9 -7 -6 -4 -4 -4 -3 -3 -3 -2 -2 -2 -2 -2 -3 -3 -4 -4 -3 -5 -6 -7 -7
-13 -13 -13 -13 -13 -13 -13 -13 -12 -12 -12 -11 -11 -10 -10 -9 -8 -7 -6 -6 -5 -5 -4 -4 -3 -4 -4 -4 -3 -3 -6 -7 -7 -6 -6 -5 -7 -8
-14 -14 -13 -13 -13 -13 -13 -13 -12 -12 -12 -12 -11 -11 -10 -10 -9 -8 -7 -7 -7 -6 -6 -5 -5 -5 -5 -5 -4 -5 -6 -8 -8 -8 -8 -7 -7 -7

GFSNE_850_temp_159.txt.gz
Temp
9 12 12 13 12 11 11 11 11 10 12 12 12 13 13 13 12 13 12 13 13 13 12 11 11 11 10 10 10 9 9 8 8 9 9 9 9 9
8 10 12 13 13 13 13 12 12 12 11 12 12 12 12 12 12 12 12 12 13 12 12 12 11 11 10 10 10 9 9 8 8 8 9 9 9 9
9 10 12 13 13 13 12 13 12 11 11 11 11 11 11 12 12 11 12 12 12 12 12 12 11 11 11 10 10 9 9 8 8 8 8 8 8 8
8 9 11 12 12 12 12 12 11 10 10 9 11 11 11 12 11 11 12 12 11 12 12 12 11 11 11 10 10 10 9 9 8 8 8 8 8 8
7 8 9 10 10 10 10 10 9 9 9 9 10 10 10 11 11 11 11 11 12 11 11 11 11 11 11 10 10 10 10 9 9 9 8 8 8 8
1 4 8 9 9 9 9 9 9 9 9 9 10 10 10 11 10 11 11 11 12 11 11 11 11 11 11 11 10 10 10 10 9 9 9 9 8 8
-1 -2 1 3 7 8 8 9 9 9 9 8 9 9 9 10 10 11 11 11 11 11 11 10 10 11 11 10 10 10 10 10 9 9 9 9 8 8
-1 -2 -1 -1 2 4 6 8 8 9 9 9 9 9 9 9 10 10 10 10 10 11 10 10 10 10 11 10 11 10 10 10 10 9 9 9 8 8
-3 -1 -2 -1 0 1 3 5 7 7 7 7 8 8 8 8 8 9 9 9 9 10 10 10 10 10 10 10 10 10 10 10 10 10 9 9 9 9
-5 -3 -1 -3 0 1 0 3 5 5 5 6 7 7 7 7 7 8 8 8 8 9 9 9 10 10 9 10 10 9 9 10 10 10 10 9 9 9
-5 -5 -4 -2 -3 1 2 2 4 3 3 4 5 6 7 7 7 7 7 7 8 8 8 8 9 9 9 9 9 10 10 10 10 10 9 9 9 9
-8 -7 -6 -6 0 -4 -0 1 1 3 3 3 4 5 6 6 6 6 6 6 7 7 8 8 9 8 8 9 10 10 9 9 9 9 9 9 9 8
-8 -8 -7 -6 -3 -7 -5 -2 -4 -2 0 2 4 4 4 5 5 4 5 5 6 6 7 7 8 8 8 8 9 9 9 9 9 9 9 8 9 8
-9 -10 -9 -8 -7 -8 -7 -5 -4 -1 -1 0 1 2 3 3 4 4 4 4 5 6 6 6 6 7 8 8 8 8 9 9 9 8 8 8 8 8
-10 -10 -9 -8 -8 -7 -7 -6 -6 -4 -3 -2 -1 -0 -0 1 2 3 2 3 4 5 6 6 6 6 6 6 7 7 8 8 8 8 8 7 7 8
-10 -10 -10 -10 -9 -8 -7 -7 -7 -7 -7 -6 -4 -2 -2 -1 -1 -1 1 1 1 4 5 5 6 5 5 6 5 6 6 6 7 7 7 6 5 4
-10 -10 -10 -10 -10 -10 -10 -9 -8 -8 -8 -7 -6 -5 -4 -3 -2 -2 -1 -0 0 1 2 3 4 4 4 4 4 4 5 5 5 5 5 5 3 3
-10 -11 -12 -12 -12 -12 -11 -11 -11 -10 -10 -9 -8 -8 -7 -6 -4 -2 -2 -1 -0 1 1 2 3 3 3 3 3 3 3 3 4 3 3 2 1 1
-11 -12 -12 -13 -13 -13 -12 -12 -12 -11 -11 -11 -10 -9 -9 -8 -7 -5 -4 -2 -1 -1 0 0 1 1 0 1 2 2 3 2 1 1 1 0 -1 -0
-12 -12 -12 -13 -13 -13 -13 -13 -12 -12 -11 -11 -11 -10 -10 -10 -9 -7 -6 -6 -4 -3 -2 -2 -1 -0 -0 -0 0 0 0 0 -1 -1 -2 -3 -3 -3
-13 -13 -13 -12 -12 -12 -12 -12 -12 -13 -12 -12 -11 -11 -11 -10 -10 -9 -8 -7 -7 -5 -4 -3 -2 -2 -2 -2 -2 -2 -1 -1 -2 -2 -2 -3 -5 -5
-14 -14 -14 -14 -13 -13 -12 -12 -12 -12 -12 -12 -11 -11 -11 -11 -10 -10 -9 -8 -8 -6 -6 -5 -4 -4 -4 -4 -3 -3 -3 -3 -4 -5 -5 -4 -5 -6
-14 -14 -14 -14 -14 -14 -13 -13 -13 -12 -12 -12 -12 -11 -11 -11 -10 -10 -9 -9 -8 -7 -7 -6 -6 -5 -5 -4 -4 -4 -4 -5 -6 -7 -7 -6 -6 -5